#timestamp,LO_Frequency,Hit,StdDev 
1648580415.5,286046998.5,N
1648580435.4,286046998.8,N
1648580455.2,286046999.5,N
1648580475.1,286046998.2,N
1648580476.0,286046998.2,N
1648580495.8,286046998.5,N
1648580515.6,286046998.1,N
1648580535.5,286047002.5,N
1648580555.3,286047000.5,N
1648580575.1,286046998.7,N
1648580595.9,286046997.0,N
1648580615.7,286046997.9,N
1648580635.6,286046998.0,N
1648580655.4,286046995.6,N
1648580675.2,286046997.1,N
1648580695.1,286046999.1,N
1648580696.0,286046999.1,N
1648580715.8,286047000.8,N
1648580735.7,286046999.0,N
1648580755.5,286046998.5,N
1648580775.3,286047002.6,N
1648580795.2,286046998.1,N
1648580815.0,286046998.6,N
1648580815.9,286046998.6,N
1648580835.7,286047001.2,N
1648580855.6,286046999.1,N
1648580875.4,286046999.4,N
1648580895.3,286046998.3,N
1648580915.1,286046998.9,N
1648580916.0,286046998.9,N
1648580935.8,286046997.2,N
1648580955.7,286046999.2,N
1648580975.5,286046998.3,N
1648580995.3,286046999.3,N
1648581015.2,286046998.9,N
1648581035.0,286047000.5,N
1648581035.9,286047000.5,N
1648581055.8,286047001.2,N
1648581075.6,286047000.9,N
1648581095.4,286047000.0,N
1648581115.3,286047001.5,N
1648581135.1,286047001.4,N
1648581155.9,286047002.3,N
1648581175.7,286047001.0,N
1648581225.6,286046998.5,E
1648581235.5,286047001.1,N
1648581255.3,286046999.7,P
1648581275.2,286047000.2,N
1648581295.9,286047001.2,N
1648581315.7,286047002.6,Y
1648581335.6,286047000.3,P
1648581355.4,286047002.3,P
1648581375.3,286047004.3,P
1648581395.1,286046999.7,N
1648581396.0,286046999.7,N
1648581415.8,286047002.1,N
1648581435.7,286047002.6,N
1648581455.5,286046999.9,N
1648581475.3,286046998.2,N
1648581495.2,286046999.4,N
1648581515.0,286046999.6,N
1648581515.9,286046999.6,N
1648581535.8,286047000.0,N
1648581555.6,286047000.2,N
1648581575.4,286046998.6,N
1648581595.3,286046998.2,N
1648581615.1,286047001.0,N
1648581635.8,286046999.7,N
1648581655.7,286047002.4,N
1648581675.5,286047002.3,N
1648581695.4,286046999.7,N
1648581715.2,286047000.1,N
1648581735.0,286047002.6,N
1648581735.9,286047002.6,N
1648581755.8,286047001.7,N
1648581775.6,286047004.4,N
1648581795.4,286047000.2,N
1648581815.3,286047000.7,N
1648581835.1,286047002.8,N
1648581855.9,286047002.4,N
1648581875.7,286046999.8,N
1648581895.5,286047001.9,N
1648581915.4,286047002.7,N
1648581935.2,286047002.4,N
1648581955.1,286047000.2,N
1648581956.0,286047000.2,N
1648581975.8,286047001.2,N
1648581995.6,286046998.7,N
1648582015.5,286047000.8,N
1648582035.3,286046998.6,N
1648582055.1,286047000.9,N
1648582075.9,286046998.3,N
1648582095.7,286046997.0,N
1648582115.6,286046999.2,N
1648582135.4,286046998.5,N
1648582155.2,286046999.0,N
1648582175.1,286047000.9,N
1648582176.0,286047000.9,N
1648582195.8,286047000.5,N
1648582215.7,286047000.5,N
1648582235.5,286047002.4,N
1648582255.3,286047002.7,N
1648582275.2,286047000.0,N
1648582295.9,286047002.5,N
1648582315.7,286047000.5,N
1648582335.6,286047002.1,N
1648582355.4,286047002.1,N
1648582375.3,286046999.7,N
1648582395.1,286047002.6,N
1648582396.0,286047002.6,N
1648582415.8,286047000.0,N
1648582435.7,286047000.4,N
1648582455.5,286047002.6,N
1648582475.3,286047002.5,N
1648582495.2,286047003.5,N
1648582515.0,286047001.6,N
1648582515.9,286047001.6,N
1648582535.8,286047002.2,N
1648582555.6,286047001.8,N
1648582575.4,286047000.4,N
1648582595.3,286046999.8,N
1648582615.1,286047000.6,N
1648582635.8,286047000.3,N
1648582655.7,286047000.5,N
1648582675.5,286046999.9,N
1648582695.4,286047000.4,N
1648582715.2,286047002.8,N
1648582735.0,286047002.2,N
1648582735.9,286047002.2,N
1648582755.8,286047001.8,N
1648582775.6,286047003.8,Y
1648582795.5,286047002.4,P
1648582815.3,286047001.2,N
1648582835.1,286047001.0,N
1648582855.9,286046998.5,N
1648582875.7,286047000.9,N
1648582895.5,286046998.9,N
1648582915.4,286047000.1,N
1648582935.2,286047002.7,N
1648582955.1,286046998.2,N
1648582956.0,286046998.2,N
1648582975.8,286047001.6,N
1648582995.6,286047001.7,N
1648583015.5,286047002.8,N
1648583035.3,286047002.6,N
1648583055.1,286046999.8,N
1648583075.9,286046999.9,N
1648583095.7,286047000.4,N
1648583115.6,286046999.9,N
1648583135.4,286046999.9,N
1648583155.2,286047000.2,N
1648583175.1,286047001.0,N
1648583176.0,286047001.0,N
1648583195.8,286047001.5,N
1648583215.6,286046999.9,N
1648583235.5,286047000.2,N
1648583255.3,286047002.6,N
1648583275.2,286047002.6,N
1648583295.9,286047001.3,N
1648583315.7,286047002.5,N
1648583365.6,286047002.2,E
1648583375.5,286046999.8,N
1648583395.3,286046996.8,P
1648583415.2,286046996.7,N
1648583435.0,286046995.0,Y
1648583435.9,286046995.0,P
1648583455.8,286046998.8,N
1648583475.6,286046999.2,N
1648583495.4,286046999.6,N
1648583515.3,286046996.5,N
1648583535.1,286046996.8,N
1648583555.8,286046997.1,N
1648583575.7,286046997.9,N
1648583595.5,286046995.3,Y
1648583615.4,286046997.0,P
1648583635.2,286046997.6,P
1648583655.0,286046997.8,P
1648583655.9,286046997.8,Y
1648583675.8,286047002.1,P
1648583695.6,286047000.0,N
1648583715.5,286046998.1,N
1648583735.3,286046996.5,N
1648583755.1,286046996.5,N
1648583775.9,286046997.4,N
1648583795.7,286046997.8,N
1648583815.5,286046997.3,N
1648583835.4,286046997.2,N
1648583855.2,286046997.5,N
1648583875.1,286046995.3,Y
1648583876.0,286046995.3,P
1648583895.8,286046996.9,N
1648583915.6,286046997.6,N
1648583935.5,286046996.9,Y
1648583955.3,286047001.0,P
1648583975.2,286046998.6,N
1648583995.9,286046998.2,N
